Regional Weather Roundup
Issued by NWS Sterling, VA

Home | Current Version | Previous Version | Graphics & Text | Print | Product List | Glossary On
Versions: 1 2 3 4 5 6 7 8 9 10 11 12 13 14 15 16 17 18 19 20 21 22 23 24 25 26 27
000
ASUS41 KLWX 211711
RWRLWX

REGIONAL WEATHER ROUNDUP
NATIONAL WEATHER SERVICE BALTIMORE MD/WASHINGTON DC
1200 PM EST WED FEB 21 2018

Note: "FAIR" indicates few or no clouds below 12,000 feet
with no significant weather and/or obstructions to visibility.
 TC=TEMPERATURE CELSIUS

 * =Non NWS site. Station does not report precipitation (e.g. rain,
    snow, etc.), thunder, or fog.

DCZ001-MDZ009-015-VAZ040>042-051-053>054-211800-
WASHINGTON METRO

CITY           SKY/WX    TMP DP  RH WIND       PRES   REMARKS
WASHINGTON NAT PTSUNNY   76  63  64 SW14      30.32F
DULLES         PTSUNNY   74  63  68 S20G26    30.32F
ANDREWS AFB    FAIR      74  62  65 S23G31    30.32F
FT BELVOIR     FAIR      75  61  62 S9G17     30.33F
QUANTICO       FAIR      75  63  66 SW16G23   30.35F
COLLEGE PARK*  FAIR      75  61  62 S7G16     30.31F
LEESBURG*      FAIR      77  63  61 SW14      30.31F
MANASSAS*      FAIR      75  63  66 SW13G26   30.33F
GAITHERSBURG*  FAIR      75  61  61 SW15G22   30.32F

$$

MDZ006>007-011-014-211800-
BALTIMORE METRO

CITY           SKY/WX    TMP DP  RH WIND       PRES   REMARKS
BWI AIRPORT    FAIR      74  62  66 SW14G23   30.29F
MD SCIENCE CTR   N/A     79  62  56 MISG      30.33F
MARTIN STATE   MOSUNNY   73  66  78 SW13G21   30.32F
ANNAPOLIS      FAIR      78  64  61 S12G25    30.31F
FORT MEADE*    FAIR      73  61  64 SW14G25   30.33F

$$

MDZ012-015-019>023-211800-
MARYLAND EASTERN SHORE

CITY           SKY/WX    TMP DP  RH WIND       PRES   REMARKS
OCEAN CITY     FAIR      72  63  73 W18G32    30.39F
SALISBURY      PTSUNNY   72  63  73 SW17G24   30.38F
BAY BRIDGE AP* FAIR      73  61  64 SW13G22   30.32F
CAMBRIDGE*     CLOUDY    72  63  73 SW13G20   30.37F
EASTON*        MOSUNNY   72  63  73 SW17G25   30.39F

$$

MDZ017>025-211800-
SOUTHERN MARYLAND

CITY           SKY/WX    TMP DP  RH WIND       PRES   REMARKS
PATUXENT RIVER FAIR      73  62  68 SW16G28   30.36F
ST INIGOES     FAIR      71  61  70 S14       30.37F
LEONARDTOWN*   PTSUNNY   72  61  68 SW16G23   30.38F

$$

MDZ003>005-211800-
NORTH CENTRAL MARYLAND

CITY           SKY/WX    TMP DP  RH WIND       PRES   REMARKS
FREDERICK*     PTSUNNY   73  59  60 SW14G21   30.33F
HAGERSTOWN APT FAIR      78  57  48 S21G26    30.26F
WESTMINSTER*   PTSUNNY   73  61  64 SW16      30.30S

$$

MDZ501>502-211800-
WESTERN MARYLAND

CITY           SKY/WX    TMP DP  RH WIND       PRES   REMARKS
OAKLAND*       FAIR      66  52  59 W13G23    30.34S
CUMBERLAND*    FAIR      81  55  41 S8        30.28F

$$

VAZ025>031-211800-
SHENANDOAH VALLEY

CITY           SKY/WX    TMP DP  RH WIND       PRES   REMARKS
WINCHESTER*    FAIR      75  59  57 S12       30.30F
FRONT ROYAL*   FAIR      77  59  53 SW13G24   30.29F
LURAY*         FAIR      77  59  53 S16G25    30.32F
NEW MARKET*    PTSUNNY   75  58  55 S12G24    30.30F
STAUNTON*      CLOUDY    71  58  64 SW16G28   30.38S
WAYNESBORO*    CLOUDY    71  59  65 SW22G30   30.38F

$$

WVZ021-048>050-054>055-211800-
EASTERN WEST VIRGINIA PANHANDLE

CITY           SKY/WX    TMP DP  RH WIND       PRES   REMARKS
MARTINSBURG    FAIR      78  57  48 SW15G29   30.25F
PETERSBURG*    PTSUNNY   78  57  47 S12G25    30.27F

$$

VAZ036>039-050-211800-
CENTRAL FOOTHILLS

CITY           SKY/WX    TMP DP  RH WIND       PRES   REMARKS
CHARLOTTESVILL FAIR      75  61  61 S16G28    30.36F
CULPEPER*      FAIR      76  61  59 SW18G24   30.35F
ORANGE*        FAIR      73  61  64 SW18G28   30.36F
GORDONSVILLE*  PTSUNNY   72  63  75 SW13G24   30.36F
WARRENTON*     FAIR      76  59  55 SW15G26   30.33F

$$

VAZ055>057-211800-
NORTH AND CENTRAL PIEDMONT

CITY           SKY/WX    TMP DP  RH WIND       PRES   REMARKS
FREDERICKSBRG* FAIR      75  64  67 SW22G29   30.35F
STAFFORD*      FAIR      75  64  67 SW18G25   30.39F

$$

NCZ024-NYZ072-PAZ021-071-VAZ022-071-211800-
OTHER REGIONAL OBSERVATIONS

CITY           SKY/WX    TMP DP  RH WIND       PRES   REMARKS
NEW YORK CITY  FAIR      72  58  61 MISG      30.26F
PHILADELPHIA   MOSUNNY   72  60  66 SW22G30   30.29F
PITTSBURGH     CLOUDY    63  53  70 NW14      30.29R
ROANOKE        FAIR      73  60  63 VRB5      30.42F
RICHMOND       PTSUNNY   76  63  64 SW15      30.41F
RALEIGH        PTSUNNY   72  63  73 W12       30.47S

$$

ANZ530>537-211800-
MARINE OBSERVATIONS

STATION/POSITION TIME  TEMP    WIND        PRES
                       AIR SEA DIR/SP/G
                 (UTC) (F)     (DEG/KT/KT) (MB)
THOMAS PT LIGHT  1700   67 41  240/ 12/ 19   N/A
BALT KEY BRIDGE  1642   72     220/ 17/ 22 1025.9F
COVE POINT       1642   69     240/ 17/ 26 1028.9F
LEWISETTA        1642   71 52  240/ 19/ 24 1029.0F
SOLOMONS ISLAND  1642   66 45  220/ 17/ 25 1028.0F
PINEY POINT      1648          250/  7/ 10   N/A

$$





USA.gov is the U.S. government's official web portal to all federal, state and local government web resources and services.